Orbital elements:
2015 XP129 PHA, Earth MOID = 0.0435 AU
Epoch 2016 Jan. 13.0 TT = JDT 2457400.5 MPC
M 123.16460 (2000.0) P Q
n 0.49338253 Peri. 16.86875 +0.26477824 +0.90144917
a 1.5861596 Node 269.53031 -0.91955660 +0.12909672
e 0.3942855 Incl. 20.02779 -0.29035863 +0.41318691
P 2.00 H 18.7 G 0.15 U 8